When you browse on this site, cookies collect data to enhance your experience and personalize the content and advertising you see.
Visit our Privacy Policy to learn more. By continuing to use the site, you agree to this use of cookies and data.
  • In Sweden
  • List of Countries
  • For 7 days
  • Water Temperature
  • Satellite Maps
  • Weather Map
  • Weather Widgets
  • user-avatar
    Login

    Hourly Weather Marywil

    Today, 18 February, Monday

    Time Temperature Precipitation Wind Pressure Humidity
    00:00 +7°C° 0 mm 1 mps 759 mmHg 90%
    01:00 +6°C° 0 mm 1 mps 759 mmHg 90%
    02:00 +6°C° 0 mm 1 mps 759 mmHg 90%
    03:00 +6°C° 0 mm 1 mps 759 mmHg 91%
    04:00 +6°C° 0 mm 1 mps 758 mmHg 91%
    05:00 +5°C° 0 mm 1 mps 758 mmHg 91%
    06:00 +5°C° 0 mm 1 mps 758 mmHg 91%
    07:00 +4°C° 0 mm 1 mps 758 mmHg 90%
    08:00 +4°C° 0 mm 2 mps 758 mmHg 85%
    09:00 +5°C° 0 mm 2 mps 758 mmHg 81%
    10:00 +5°C° 0 mm 3 mps 758 mmHg 76%
    11:00 +8°C° 0 mm 3 mps 758 mmHg 71%
    12:00 +9°C° 0 mm 3 mps 758 mmHg 67%
    13:00 +10°C° 0 mm 3 mps 757 mmHg 62%
    14:00 +9°C° 0 mm 3 mps 757 mmHg 62%
    15:00 +9°C° 0 mm 2 mps 757 mmHg 62%
    16:00 +9°C° 0 mm 2 mps 756 mmHg 63%
    17:00 +8°C° 0 mm 2 mps 756 mmHg 64%
    18:00 +7°C° 0 mm 2 mps 756 mmHg 66%
    19:00 +6°C° 0 mm 2 mps 756 mmHg 68%
    20:00 +5°C° 0 mm 2 mps 755 mmHg 69%
    21:00 +5°C° 0 mm 2 mps 755 mmHg 69%
    22:00 +5°C° 0 mm 2 mps 755 mmHg 69%
    23:00 +3°C° 0 mm 3 mps 755 mmHg 71%

    Tomorrow, 19 February, Tuesday

    Time Temperature Precipitation Wind Pressure Humidity
    00:00 +3°C° 0 mm 3 mps 755 mmHg 73%
    01:00 +3°C° 0 mm 3 mps 754 mmHg 75%
    02:00 +2°C° 0 mm 3 mps 754 mmHg 77%
    03:00 +2°C° 0 mm 3 mps 754 mmHg 78%
    04:00 +2°C° 0 mm 3 mps 753 mmHg 80%
    05:00 +1°C° 0 mm 3 mps 753 mmHg 79%
    06:00 0°C° 0 mm 4 mps 753 mmHg 78%
    07:00 0°C° 0 mm 4 mps 753 mmHg 78%
    08:00 +1°C° 0 mm 4 mps 752 mmHg 73%
    09:00 +3°C° 0 mm 5 mps 752 mmHg 68%
    10:00 +5°C° 0 mm 5 mps 752 mmHg 63%
    11:00 +6°C° 0 mm 5 mps 752 mmHg 59%
    12:00 +8°C° 0 mm 5 mps 751 mmHg 55%
    13:00 +9°C° 0 mm 6 mps 751 mmHg 51%
    14:00 +9°C° 0 mm 5 mps 751 mmHg 53%
    15:00 +9°C° 0 mm 5 mps 751 mmHg 54%
    16:00 +8°C° 0 mm 4 mps 750 mmHg 55%
    17:00 +8°C° 0 mm 4 mps 751 mmHg 60%
    18:00 +7°C° 0 mm 4 mps 751 mmHg 66%
    19:00 +6°C° 0 mm 4 mps 751 mmHg 71%
    20:00 +6°C° 0.2 mm 4 mps 751 mmHg 76%
    21:00 +6°C° 0.2 mm 4 mps 751 mmHg 82%
    22:00 +6°C° 0.2 mm 5 mps 751 mmHg 87%
    23:00 +5°C° 0 mm 5 mps 751 mmHg 87%

    Day after tomorrow, 20 February, Wednesday

    Time Temperature Precipitation Wind Pressure Humidity
    00:00 +3°C° 0 mm 5 mps 752 mmHg 86%
    01:00 +3°C° 0 mm 5 mps 752 mmHg 86%
    02:00 +3°C° 0.1 mm 5 mps 752 mmHg 86%
    03:00 +3°C° 0.1 mm 6 mps 752 mmHg 86%
    04:00 +3°C° 0.1 mm 6 mps 752 mmHg 86%
    05:00 +3°C° 0 mm 6 mps 752 mmHg 85%
    06:00 +3°C° 0 mm 6 mps 753 mmHg 83%
    07:00 +2°C° 0 mm 6 mps 753 mmHg 81%
    08:00 +3°C° 0.1 mm 7 mps 754 mmHg 77%
    09:00 +3°C° 0.1 mm 7 mps 754 mmHg 74%
    10:00 +3°C° 0.1 mm 7 mps 754 mmHg 70%
    11:00 +4°C° 0 mm 7 mps 755 mmHg 70%
    12:00 +4°C° 0 mm 7 mps 755 mmHg 71%
    13:00 +4°C° 0 mm 7 mps 755 mmHg 71%
    14:00 +4°C° 0 mm 7 mps 755 mmHg 72%
    15:00 +4°C° 0 mm 6 mps 755 mmHg 73%
    16:00 +4°C° 0 mm 6 mps 755 mmHg 74%
    17:00 +5°C° 0 mm 5 mps 756 mmHg 74%
    18:00 +5°C° 0 mm 5 mps 756 mmHg 75%
    19:00 +5°C° 0 mm 5 mps 756 mmHg 76%
    20:00 +3°C° 0 mm 5 mps 756 mmHg 77%
    21:00 +3°C° 0 mm 5 mps 756 mmHg 79%
    22:00 +4°C° 0 mm 4 mps 756 mmHg 81%
    23:00 +5°C° 0 mm 5 mps 756 mmHg 81%

    21 February, Thursday

    Time Temperature Precipitation Wind Pressure Humidity
    00:00 +5°C° 0 mm 5 mps 756 mmHg 82%
    01:00 +5°C° 0 mm 5 mps 756 mmHg 83%
    02:00 +3°C° 0.1 mm 5 mps 756 mmHg 84%
    03:00 +3°C° 0.1 mm 5 mps 756 mmHg 84%
    04:00 +3°C° 0.1 mm 5 mps 756 mmHg 85%
    05:00 +3°C° 0.4 mm 5 mps 755 mmHg 85%
    06:00 +3°C° 0.4 mm 6 mps 755 mmHg 85%
    07:00 +3°C° 0.4 mm 6 mps 755 mmHg 85%
    08:00 +3°C° 0.5 mm 6 mps 755 mmHg 86%
    09:00 +3°C° 0.5 mm 6 mps 755 mmHg 87%
    10:00 +4°C° 0.5 mm 6 mps 755 mmHg 88%
    11:00 +4°C° 0.1 mm 6 mps 756 mmHg 87%
    12:00 +5°C° 0.1 mm 6 mps 756 mmHg 86%
    13:00 +7°C° 0.1 mm 6 mps 756 mmHg 85%
    14:00 +7°C° 0.1 mm 6 mps 756 mmHg 86%
    15:00 +7°C° 0.1 mm 6 mps 756 mmHg 86%
    16:00 +7°C° 0.1 mm 5 mps 756 mmHg 87%
    17:00 +6°C° 0.1 mm 5 mps 756 mmHg 88%
    18:00 +6°C° 0.1 mm 5 mps 757 mmHg 90%
    19:00 +6°C° 0.1 mm 5 mps 757 mmHg 91%
    20:00 +6°C° 0 mm 5 mps 757 mmHg 90%
    21:00 +6°C° 0 mm 5 mps 758 mmHg 89%
    22:00 +5°C° 0 mm 5 mps 758 mmHg 88%
    23:00 +5°C° 0.1 mm 5 mps 758 mmHg 89%

    22 February, Friday

    Time Temperature Precipitation Wind Pressure Humidity
    00:00 +5°C° 0.1 mm 5 mps 759 mmHg 89%
    01:00 +5°C° 0.1 mm 5 mps 759 mmHg 89%
    02:00 +4°C° 0.1 mm 6 mps 760 mmHg 87%
    03:00 +3°C° 0.1 mm 6 mps 761 mmHg 85%
    04:00 +2°C° 0.1 mm 6 mps 761 mmHg 83%
    05:00 +1°C° 0 mm 5 mps 762 mmHg 81%
    06:00 +1°C° 0 mm 5 mps 763 mmHg 79%
    07:00 0°C° 0 mm 5 mps 765 mmHg 77%
    08:00 0°C° 0 mm 4 mps 765 mmHg 73%
    09:00 0°C° 0 mm 4 mps 766 mmHg 69%
    10:00 0°C° 0 mm 4 mps 767 mmHg 65%
    11:00 +1°C° 0 mm 4 mps 768 mmHg 60%
    12:00 +1°C° 0 mm 4 mps 768 mmHg 56%
    13:00 +3°C° 0 mm 4 mps 769 mmHg 51%
    14:00 +2°C° 0 mm 3 mps 769 mmHg 50%
    15:00 +2°C° 0 mm 3 mps 770 mmHg 48%
    16:00 +2°C° 0 mm 3 mps 770 mmHg 47%
    17:00 +1°C° 0 mm 3 mps 771 mmHg 51%
    18:00 +1°C° 0 mm 2 mps 771 mmHg 55%
    19:00 -1°C° 0 mm 2 mps 772 mmHg 59%
    20:00 -1°C° 0 mm 2 mps 772 mmHg 59%
    21:00 -1°C° 0 mm 2 mps 772 mmHg 60%
    22:00 -1°C° 0 mm 2 mps 773 mmHg 61%
    23:00 -1°C° 0 mm 2 mps 773 mmHg 61%

    23 February, Saturday

    Time Temperature Precipitation Wind Pressure Humidity
    00:00 -1°C° 0 mm 2 mps 772 mmHg 60%
    01:00 -1°C° 0 mm 2 mps 772 mmHg 60%
    02:00 -1°C° 0 mm 3 mps 772 mmHg 61%
    03:00 -1°C° 0 mm 3 mps 772 mmHg 61%
    04:00 -1°C° 0 mm 3 mps 771 mmHg 61%
    05:00 -1°C° 0 mm 3 mps 771 mmHg 61%
    06:00 -2°C° 0 mm 4 mps 770 mmHg 61%
    07:00 -2°C° 0 mm 4 mps 770 mmHg 61%
    08:00 0°C° 0 mm 4 mps 770 mmHg 61%
    09:00 +1°C° 0 mm 5 mps 769 mmHg 61%
    10:00 +2°C° 0 mm 5 mps 769 mmHg 60%
    11:00 +3°C° 0 mm 5 mps 768 mmHg 64%
    12:00 +4°C° 0 mm 6 mps 767 mmHg 67%
    13:00 +5°C° 0 mm 6 mps 767 mmHg 70%
    14:00 +5°C° 0 mm 6 mps 766 mmHg 75%
    15:00 +6°C° 0 mm 5 mps 766 mmHg 80%
    16:00 +6°C° 0 mm 5 mps 765 mmHg 85%
    17:00 +6°C° 0 mm 5 mps 765 mmHg 87%
    18:00 +5°C° 0 mm 5 mps 765 mmHg 88%
    19:00 +5°C° 0 mm 5 mps 765 mmHg 90%
    20:00 +5°C° 0 mm 4 mps 765 mmHg 90%
    21:00 +4°C° 0 mm 4 mps 765 mmHg 90%
    22:00 +4°C° 0 mm 3 mps 765 mmHg 89%
    23:00 +3°C° 0 mm 3 mps 765 mmHg 90%
    Show more